RH
43 42 43 47 53 43 48 49 60 50 48 43 34 29 29 34 32 35 35 40 42 41 44 51 55 57 60 62 70 80 90 88 86 87 84 85 82 80 80 86 89 86 79 72
58 54 55 52 37 34 42 39 48 49 46 34 35 37 37 34 40 37 41 44 48 46 49 57 67 69 73 75 79 84 78 85 88 86 92 91 86 85 92 95 94 83 80 73
51 52 65 73 43 40 42 49 52 57 49 44 49 55 57 48 47 52 50 51 52 51 59 64 69 73 79 80 84 85 92 95 89 88 94 94 95 97 95 96 94 85 81 75
49 46 61 32 28 33 42 43 45 51 54 52 52 55 56 56 54 52 52 53 54 58 61 71 81 82 86 97 92 95 96 96 96 97 98 97 97 97 97 94 94 86 82 73
54 40 36 26 23 35 34 38 33 48 55 51 55 61 57 62 58 57 50 50 50 55 66 75 91 94 98 98 98 97 99 96 97 97 97 97 97 97 97 97 89 79 77 69
50 57 52 28 28 36 54 55 32 52 61 54 63 65 71 70 60 37 39 44 47 52 60 76 87 96 97 98 98 97 98 98 98 98 97 97 97 97 97 89 80 77 70 61
62 71 53 34 47 52 59 42 56 63 67 65 61 68 61 49 31 28 33 33 29 35 49 59 68 83 92 98 98 98 97 98 98 98 98 97 97 97 90 85 78 70 64 55
81 87 84 53 55 64 67 82 73 62 75 64 64 60 47 28 26 26 28 32 31 30 36 44 51 66 80 87 97 98 98 98 98 98 97 97 97 95 90 85 79 73 65 59
57 54 56 66 55 61 77 56 61 79 74 89 65 58 33 23 24 26 31 34 34 34 35 39 46 51 63 79 87 96 98 97 97 97 97 97 97 96 90 81 74 70 65 61
73 62 63 56 63 57 54 63 66 77 85 71 66 46 25 24 27 27 30 35 34 38 38 39 45 48 53 62 79 93 94 96 98 98 97 97 97 93 87 79 75 70 65 59
66 53 59 56 68 68 56 61 64 68 80 74 55 33 27 27 28 27 30 35 34 34 37 43 48 52 56 59 69 83 94 97 97 97 98 97 95 94 88 85 80 72 66 62
37 39 45 40 34 48 58 78 78 78 82 76 64 44 26 27 30 34 38 37 37 37 39 43 47 56 61 64 68 76 83 92 97 96 97 97 97 95 90 87 78 72 69 68
35 36 32 33 52 68 81 89 86 86 85 79 69 55 38 37 40 40 38 38 38 42 47 50 55 58 62 70 71 77 87 92 98 98 97 97 98 95 87 80 79 72 69 65
44 40 40 73 74 90 95 88 93 88 81 67 57 48 39 37 39 43 52 57 52 59 63 72 73 73 74 74 79 88 95 98 97 98 97 97 96 90 84 77 69 68 70 66
42 58 69 73 84 98 92 91 83 79 69 48 35 34 37 43 56 64 69 77 79 80 87 93 92 93 95 90 93 94 96 97 97 97 97 97 96 92 85 82 82 77 75 73
89 88 88 96 98 92 87 82 67 52 47 38 38 44 55 59 69 72 73 81 92 96 98 98 98 97 98 98 98 98 98 98 98 98 98 98 97 95 93 90 87 84 84 83
87 91 87 81 72 63 57 47 43 45 45 46 48 58 66 70 70 70 71 74 76 81 86 90 94 95 95 96 97 97 98 98 98 97 94 94 93 93 93 94 96 91 91 85
58 57 53 44 42 44 43 48 46 47 53 60 62 65 64 62 61 55 54 56 61 68 76 83 87 92 95 96 96 97 97 97 96 95 95 96 97 98 96 97 97 98 95 90
50 48 51 46 46 49 45 48 49 54 64 67 63 55 50 45 47 46 43 45 49 53 58 64 70 74 80 87 92 94 96 95 95 95 97 98 97 98 98 98 96 97 98 93
50 45 45 48 48 47 46 51 56 75 71 64 54 47 41 42 41 41 43 46 50 53 55 56 57 59 61 63 65 69 73 75 80 85 89 95 97 98 98 98 98 98 97 87
54 44 43 47 50 56 71 89 82 69 62 54 46 38 37 42 44 46 49 51 52 53 54 55 55 56 57 59 60 61 63 66 70 73 78 85 89 96 97 97 98 96 93 86
66 57 51 49 55 61 75 81 67 58 49 43 37 38 43 45 48 51 53 55 55 56 57 58 58 59 58 60 61 61 63 67 70 73 76 82 85 89 96 98 95 94 98 96
73 75 74 72 73 70 80 73 58 50 43 38 41 42 45 48 49 52 54 56 55 56 58 60 60 61 62 65 66 69 70 72 75 79 82 88 89 88 89 88 87 85 84 85
59 69 73 76 79 79 76 67 54 50 42 42 41 43 46 48 51 55 58 54 53 55 55 57 60 63 65 67 70 72 76 81 85 88 93 94 93 89 89 90 89 95 96 96
60 61 65 69 75 77 72 61 54 52 47 47 48 50 57 58 60 58 55 54 53 53 54 56 59 63 66 69 71 73 77 82 88 90 94 97 94 90 91 93 93 96 90 85
60 61 61 70 74 69 62 57 56 54 50 53 55 60 61 60 57 56 55 54 55 55 54 56 60 62 63 65 69 75 79 86 90 89 91 95 96 96 96 94 90 86 87 86
62 62 61 66 70 66 52 46 47 50 52 54 57 60 59 58 56 55 55 57 57 56 54 54 55 57 59 62 67 73 79 81 84 83 87 91 91 91 90 86 86 84 83 81